Location: Red Bud (historical)
(37.7759°N, 88.4053°W)
Time: 00:14:12
(UTC+00:00)

COSMO-SKYMED 1 - Pass Details

Date: 29 October 2020
Orbit: 621 x 623 km, 97.9° (Epoch: 28 November)

Event Time Altitude Azimuth Distance (km) Brightness Sun altitude
Rises 23:32:52 0° 19° (NNE) 2,908 5.7 -7.6°
Reaches altitude 10° 23:35:08 10° 25° (NNE) 1,997 4.8 -8.0°
Maximum altitude 23:39:19 46° 99° (E) 843 2.9 -8.8°
Drops below altitude 10° 23:43:28 10° 173° (S) 1,982 5.2 -9.6°
Sets 23:45:43 0° 179° (S) 2,884 6.1 -10.1°
